Location: Newark
(36.1358°N, 115.1208°W)
Time: 04:39:36
(UTC+00:00)

S-56A Canister/Altair - Pass Details

Date: 26 February 2020
Orbit: 634 x 2498 km, 38.9° (Epoch: 04 April)

Event Time Altitude Azimuth Distance (km) Brightness Sun altitude
Rises 01:55:42 0° 284° (WNW) 5,881 13.6 -5.7°
Reaches altitude 10° 02:02:09 10° 265° (W) 4,544 13.3 -7.0°
Maximum altitude 02:07:54 15° 236° (WSW) 3,784 12.1 -8.2°
Drops below altitude 10° 02:12:51 10° 207° (SSW) 3,779 11.5 -9.2°
Sets 02:17:24 0° 184° (S) 4,370 11.5 -10.1°
